Salamanca, Spain

10:33 AM CEST on May 22, 2018 (GMT +0200)
Matacan

Weather History for LESA - October, 2011

Change the Weather History Date:

Sunday, October 9, 2011

  Actual Average Record
Temperature  
Mean Temperature 53 °F -  
Max Temperature 71 °F - - ()
Min Temperature 35 °F - - ()
Degree Days  
Heating Degree Days 12    
Growing Degree Days 3 (Base 50)    
Moisture  
Dew Point 42 °F    
Average Humidity 64    
Maximum Humidity 100    
Minimum Humidity 35    
Precipitation  
Precipitation 0.00 in 0.05 in - ()
Sea Level Pressure  
Sea Level Pressure 30.35 in    
Wind  
Wind Speed 5 mph ()    
Max Wind Speed 13 mph    
Max Gust Speed -    
Visibility 9.0 miles    
Events      
T = Trace of Precipitation, MM = Missing Value Source: Averaged Metar Reports

Daily Weather History Graph

Daily Weather History Graph

Search for Another Location

Airport or City:

Astronomy

Oct. 09, 2011 Rise Set
Actual Time 8:26 AM CEST 7:51 PM CEST
Civil Twilight 7:58 AM CEST 8:19 PM CEST
Nautical Twilight 7:27 AM CEST 8:50 PM CEST
Astronomical Twilight 6:55 AM CEST 9:22 PM CEST
Moon 6:23 PM CEST (10/9) 5:56 AM CEST (10/9)
Length of Visible Light 12h 20m
Length of Day
11h 25m
Waxing Gibbous, 94% of the Moon is Illuminated
Oct 9
Waxing Gibbous
Oct 12
Full
Oct 20
Last Quarter
Oct 26
New
Nov 2
First Quarter

Hourly Weather History & Observations

Time (CEST) Temp. Windchill Dew Point Humidity Pressure Visibility Wind Dir Wind Speed Gust Speed Precip Events Conditions
12:00 AM 50.0 °F - 41.0 °F 71% 30.36 in - ENE 10.4 mph - N/A   Clear
1:00 AM 48.2 °F - 41.0 °F 76% 30.36 in - ENE 3.5 mph - N/A   Clear
2:00 AM 47 °F - 40 °F 69%  in 9 mi East 1.2 mph - -  
2:00 AM 46.4 °F - 41.0 °F 81% 30.36 in - Variable 1.2 mph - N/A   Clear
3:00 AM 44.6 °F 42.2 °F 39.2 °F 81% 30.36 in - NE 4.6 mph - N/A   Clear
4:00 AM 41.0 °F - 39.2 °F 93% 30.36 in - Variable 2.3 mph - N/A   Clear
5:00 AM 41.0 °F - 37.4 °F 87% 30.36 in - Variable 2.3 mph - N/A   Clear
6:00 AM 39.2 °F - 37.4 °F 93% 30.33 in - Calm Calm - N/A   Clear
7:00 AM 41.0 °F - 39.2 °F 93% 30.33 in - Variable 1.2 mph - N/A   Clear
8:00 AM 39 °F - 36 °F 86%  in 9 mi Calm Calm - -  
8:00 AM 39.2 °F - 37.4 °F 93% 30.33 in - Calm Calm - N/A   Clear
8:30 AM 35.6 °F 32.8 °F 35.6 °F 100% 30.36 in - SW 3.5 mph - N/A   Clear
9:00 AM 37.4 °F 34.9 °F 37.4 °F 100% 30.36 in - SW 3.5 mph - N/A   Clear
9:30 AM 46.4 °F - 41.0 °F 81% 30.36 in - Calm Calm - N/A   Clear
10:00 AM 46.4 °F 45.2 °F 42.8 °F 87% 30.39 in - East 3.5 mph - N/A   Clear
10:30 AM 50.0 °F - 42.8 °F 76% 30.39 in - Variable 2.3 mph - N/A   Clear
11:00 AM 53.6 °F - 44.6 °F 72% 30.39 in - ENE 12.7 mph - N/A   Clear
11:30 AM 55.4 °F - 44.6 °F 67% 30.39 in - ENE 12.7 mph - N/A   Clear
12:00 PM 55.4 °F - 44.6 °F 67% 30.39 in - ENE 10.4 mph - N/A   Clear
12:30 PM 57.2 °F - 44.6 °F 63% 30.39 in - ENE 9.2 mph - N/A   Clear
1:00 PM 60.8 °F - 44.6 °F 55% 30.39 in - NE 9.2 mph - N/A   Clear
1:30 PM 60.8 °F - 44.6 °F 55% 30.39 in - ENE 8.1 mph - N/A   Clear
2:00 PM 64 °F - 44 °F 37%  in 9 mi NE 10.4 mph - -  
2:00 PM 62.6 °F - 44.6 °F 52% 30.36 in - ENE 9.2 mph - N/A   Clear
2:30 PM 64.4 °F - 44.6 °F 49% 30.36 in - NE 11.5 mph - N/A   Clear
3:00 PM 66.2 °F - 44.6 °F 46% 30.36 in - NE 10.4 mph - N/A   Clear
3:30 PM 66.2 °F - 42.8 °F 43% 30.33 in - NE 11.5 mph - N/A   Clear
4:00 PM 68.0 °F - 42.8 °F 40% 30.33 in - NE 10.4 mph - N/A   Clear
4:30 PM 69.8 °F - 42.8 °F 38% 30.33 in - NE 9.2 mph - N/A   Clear
5:00 PM 69.8 °F - 42.8 °F 38% 30.30 in - NE 10.4 mph - N/A   Clear
5:30 PM 69.8 °F - 42.8 °F 38% 30.30 in - ENE 9.2 mph - N/A   Clear
6:00 PM 69.8 °F - 41.0 °F 35% 30.30 in - NE 8.1 mph - N/A   Clear
6:30 PM 69.8 °F - 42.8 °F 38% 30.30 in - NE 9.2 mph - N/A   Clear
7:00 PM 68.0 °F - 42.8 °F 40% 30.30 in - NE 9.2 mph - N/A   Clear
7:30 PM 68.0 °F - 42.8 °F 40% 30.33 in - NE 6.9 mph - N/A   Clear
8:00 PM 65 °F - 44 °F 35%  in 9 mi NE 4.6 mph - -  
8:00 PM 64.4 °F - 42.8 °F 45% 30.33 in - NE 3.5 mph - N/A   Clear
10:00 PM 55.4 °F - 42.8 °F 63% 30.33 in - Variable 1.2 mph - N/A   Clear
11:00 PM 57.2 °F - 44.6 °F 63% 30.33 in - NE 4.6 mph - N/A   Clear